Anoka County, MN

4:00 AM CST on November 15, 2019 (GMT -0600)
Anoka County / Blaine Airport

Weather History for KANE - October, 2019

Change the Weather History Date:

Sunday, October 20, 2019

  Actual Average Record
Temperature  
Mean Temperature 52 °F -  
Max Temperature 68 °F 53 °F 78 °F (2017)
Min Temperature 35 °F 37 °F 24 °F (1999)
Degree Days  
Heating Degree Days 14    
Growing Degree Days 2 (Base 50)    
Moisture  
Dew Point 38 °F    
Average Humidity 73    
Maximum Humidity 100    
Minimum Humidity 28    
Precipitation  
Precipitation 0.00 in - - ()
Sea Level Pressure  
Sea Level Pressure 29.79 in    
Wind  
Wind Speed 2 mph (ESE)    
Max Wind Speed 13 mph    
Max Gust Speed -    
Visibility 10 miles    
Events      
Averages and records for this station are not official NWS values.
T = Trace of Precipitation, MM = Missing Value Source: NWS Daily Summary

Daily Weather History Graph

Daily Weather History Graph

Search for Another Location

Airport or City:

Astronomy

Oct. 20, 2019 Rise Set
Actual Time 7:35 AM CDT 6:19 PM CDT
Civil Twilight 7:05 AM CDT 6:49 PM CDT
Nautical Twilight 6:30 AM CDT 7:23 PM CDT
Astronomical Twilight 5:56 AM CDT 7:57 PM CDT
Moon 11:18 PM CDT (10/20) 2:14 PM CDT (10/20)
Length of Visible Light 11h 44m
Length of Day
10h 44m
Waning Gibbous, 59% of the Moon is Illuminated
Oct 20
Waning Gibbous
Oct 21
Last Quarter
Oct 27
New
Nov 4
First Quarter
Nov 12
Full

Hourly Weather History & Observations

Time (CDT) Temp. Dew Point Humidity Pressure Visibility Wind Dir Wind Speed Gust Speed Precip Events Conditions
12:16 AM 39.2 °F 35.6 °F 87% 29.74 in 10.0 mi Calm Calm - N/A   Clear
12:36 AM 41.0 °F 37.4 °F 87% 29.74 in 10.0 mi Calm Calm - N/A   Clear
12:59 AM 41.0 °F 37.4 °F 87% 29.74 in 10.0 mi Calm Calm - N/A   Clear
1:17 AM 41.0 °F 35.6 °F 81% 29.74 in 10.0 mi Calm Calm - N/A   Clear
1:36 AM 39.2 °F 37.4 °F 93% 29.74 in 10.0 mi Calm Calm - N/A   Clear
1:56 AM 39.2 °F 37.4 °F 93% 29.74 in 10.0 mi Calm Calm - N/A   Clear
2:15 AM 39.2 °F 37.4 °F 93% 29.75 in 10.0 mi Calm Calm - N/A   Clear
2:20 AM 39.2 °F 37.4 °F 93% 29.75 in 10.0 mi Calm Calm - N/A   Clear
2:37 AM 37.4 °F 37.4 °F 100% 29.75 in 10.0 mi Calm Calm - N/A   Clear
2:55 AM 37.4 °F 37.4 °F 100% 29.75 in 10.0 mi Calm Calm - N/A   Clear
3:16 AM 37.4 °F 37.4 °F 100% 29.75 in 10.0 mi Calm Calm - N/A   Clear
3:36 AM 37.4 °F 37.4 °F 100% 29.76 in 10.0 mi Calm Calm - N/A   Clear
3:58 AM 37.4 °F 37.4 °F 100% 29.76 in 10.0 mi Calm Calm - N/A   Clear
4:16 AM 37.4 °F 35.6 °F 93% 29.77 in 10.0 mi Calm Calm - N/A   Clear
4:36 AM 37.4 °F 35.6 °F 93% 29.77 in 10.0 mi Calm Calm - N/A   Clear
4:56 AM 37.4 °F 37.4 °F 100% 29.78 in 10.0 mi Calm Calm - N/A   Clear
5:16 AM 35.6 °F 35.6 °F 100% 29.78 in 10.0 mi Calm Calm - N/A   Clear
5:38 AM 35.6 °F 35.6 °F 100% 29.79 in 10.0 mi Calm Calm - N/A   Clear
5:56 AM 35.6 °F 35.6 °F 100% 29.80 in 10.0 mi Calm Calm - N/A   Clear
6:16 AM 37.4 °F 37.4 °F 100% 29.81 in 10.0 mi Calm Calm - N/A   Clear
6:36 AM 35.6 °F 35.6 °F 100% 29.81 in 10.0 mi Calm Calm - N/A   Clear
6:45 AM 37.4 °F 37.4 °F 100% 29.81 in 10.0 mi Calm Calm - N/A   Clear
7:48 AM 35.6 °F 35.6 °F 100% 29.82 in 10.0 mi Calm Calm - N/A   Clear
8:50 AM 39.2 °F 39.2 °F 100% 29.85 in 10.0 mi Calm Calm - N/A   Clear
9:45 AM 48.2 °F 39.2 °F 71% 29.85 in 10.0 mi Calm Calm - N/A   Clear
10:45 AM 57.2 °F 39.2 °F 51% 29.84 in 10.0 mi Calm Calm - N/A   Clear
11:45 AM 62.6 °F 37.4 °F 39% 29.85 in 10.0 mi Variable 3.5 mph - N/A   Scattered Clouds
12:45 PM 64.4 °F 33.8 °F 32% 29.85 in 10.0 mi SSE 8.1 mph - N/A   Scattered Clouds
1:45 PM 66.2 °F 33.8 °F 30% 29.84 in 10.0 mi SSE 8.1 mph - N/A   Scattered Clouds
2:45 PM 68.0 °F 33.8 °F 28% 29.82 in 10.0 mi SE 8.1 mph - N/A   Scattered Clouds
3:45 PM 66.2 °F 37.4 °F 35% 29.83 in 10.0 mi SSE 8.1 mph - N/A   Mostly Cloudy
4:45 PM 64.4 °F 35.6 °F 34% 29.81 in 10.0 mi ESE 9.2 mph - N/A   Overcast
5:45 PM 62.6 °F 37.4 °F 39% 29.81 in 10.0 mi ESE 9.2 mph - N/A   Overcast
6:45 PM 60.8 °F 35.6 °F 39% 29.80 in 10.0 mi ESE 9.2 mph - N/A   Overcast
7:45 PM 60.8 °F 37.4 °F 42% 29.81 in 10.0 mi ESE 9.2 mph - N/A   Overcast
8:45 PM 59.0 °F 37.4 °F 45% 29.81 in 10.0 mi ESE 9.2 mph - N/A   Overcast
9:19 PM 57.2 °F 39.2 °F 51% 29.81 in 10.0 mi ESE 5.8 mph - N/A   Clear
9:36 PM 57.2 °F 39.2 °F 51% 29.81 in 10.0 mi ESE 5.8 mph - N/A   Clear
9:56 PM 57.2 °F 39.2 °F 51% 29.81 in 10.0 mi ESE 5.8 mph - N/A   Clear
10:15 PM 57.2 °F 41.0 °F 55% 29.81 in 10.0 mi ESE 6.9 mph - N/A   Clear
10:35 PM 57.2 °F 41.0 °F 55% 29.80 in 10.0 mi ESE 8.1 mph - N/A   Clear
10:58 PM 57.2 °F 41.0 °F 55% 29.79 in 10.0 mi ESE 9.2 mph - N/A   Clear
11:15 PM 57.2 °F 41.0 °F 55% 29.79 in 10.0 mi ESE 8.1 mph - N/A   Clear
11:36 PM 57.2 °F 42.8 °F 59% 29.78 in 10.0 mi ESE 12.7 mph - N/A   Clear
11:56 PM 57.2 °F 42.8 °F 59% 29.76 in 10.0 mi ESE 8.1 mph - N/A   Clear